Regional Weather Roundup
Issued by NWS

Home | Current Version | Previous Version | Graphics & Text | Print | Product List | Glossary On
Versions: 1 2 3 4 5 6 7 8 9 10 11 12 13 14 15 16 17 18 19 20 21 22 23 24 25 26 27 28 29 30 31 32 33 34 35 36 37 38 39 40 41 42 43 44 45 46 47 48 49 50
000
ASUS43 KFSD 031610
RWRSD

WEATHER ROUNDUP FOR SOUTH DAKOTA
NATIONAL WEATHER SERVICE SIOUX FALLS SD
1100 AM CDT TUE MAY 03 2016

NOTE: "FAIR" INDICATES FEW OR NO CLOUDS BELOW 12,000 FEET WITH NO
SIGNIFICANT WEATHER AND/OR OBSTRUCTIONS TO VISIBILITY.


SDZ001>005-009-010-012>017-031700-
NORTHWEST AND NORTH CENTRAL SOUTH DAKOTA

CITY           SKY/WX    TMP DP  RH WIND       PRES   REMARKS
BUFFALO          N/A     68  37  32 N14       30.03S
FAITH            N/A     65  38  36 NW13      30.06F
MOBRIDGE       SUNNY     63  47  55 NW6       29.99F
$$

SDZ012>016-024>037-041>051-057-063-072>074-031700-
SOUTHWEST AND SOUTH CENTRAL SOUTH DAKOTA

CITY           SKY/WX    TMP DP  RH WIND       PRES   REMARKS
RAPID CTY ARPT SUNNY     64  40  41 N14       30.11S
PIERRE         SUNNY     60  48  64 W9        30.03F
CUSTER         SUNNY     59  28  30 N10G22    30.16S
ELLSWORTH AFB  SUNNY     63  40  42 N12       30.11R
PHILIP         SUNNY     63  47  55 W10       30.07F
PINE RIDGE     SUNNY     56  42  59 W7        30.13R
WINNER         FAIR      60  43  53 NW12      30.07F
$$

SDZ004>011-016>023-039-040-031700-
NORTHEAST SOUTH DAKOTA

CITY           SKY/WX    TMP DP  RH WIND       PRES   REMARKS
ABERDEEN       SUNNY     65  45  48 NW14      29.96F
WATERTOWN      SUNNY     61  45  55 W18G25    29.95F
BROOKINGS      SUNNY     60  45  57 W18       29.96F
SISSETON         N/A     65  42  43 NW16G25   29.90F
$$

SDZ017-020-022-023-036>040-048>070-031700-
SOUTHEAST SOUTH DAKOTA

CITY           SKY/WX    TMP DP  RH WIND       PRES   REMARKS
SIOUX FALLS    MOSUNNY   60  45  57 NW14      30.00F
HURON          SUNNY     64  45  49 NW18G28   29.99F
CHAMBERLAIN    SUNNY     58  49  73 W9        30.05F
MITCHELL       SUNNY     61  46  57 NW17      30.02F
YANKTON        SUNNY     61  45  55 NW7       30.03F
$$

ABBREVIATIONS USED IN REMARKS
   TC - TEMPERATURE IN CELSIUS
  WCI - WIND CHILL INDEX
   HX - HEAT INDEX
  VSB - VISIBILITY




USA.gov is the U.S. government's official web portal to all federal, state and local government web resources and services.